INTELSAT 37E (IS-37E) (42950 NORAD) Tracking and Keplerian Element Data

This shows tracking and keplerian element data for the satellite.

Feedback or suggestion? Click here.




ElementValue
Catalog42950
NameINTELSAT 37E (IS-37E)
Epoch Orbit583
Epoch Day109.86854541
Epoch Year2019
RAAN231.0882
Inclination0.0184
Eccentricity0.0002888
Argument of Perigee189.121
Mean Anonmoly82.1274
Mean Motion1.00269868
Decay Rate-1.6E-06
L11 42950U 17059A 19109.86854541 -.00000160 00000-0 00000-0 0 9991
L22 42950 0.0184 231.0882 0002888 189.1210 82.1274 1.00269868 5837

Live tracking and technical data element details for INTELSAT 37E (IS-37E) (NORAD 42950). INTELSAT 37E (IS-37E) can be tracked NOW for your location showing map with azimuth and elevation plus other details from your city location.

Track the satellite on the map from your city or location and see movement details for azimuth, elevation, latitude, longitude, range, height, and movement on the map or in text.







IsCatalogInMostPopularTable: catalog: 42950, numindb: 429
Update: records affected: 1



GetName: 42950 INTELSAT 37E (IS-37E)

Hit Count: updated at: Sat, 20 Apr 2019 20:27:48 GMT